User: anonymous   Login
Location: Alberta Star Party
(51.6612°N, 112.9089°W)
Time: 07:55:54
(UTC-06:00)
Language:

AO-Echo - Orbit

View from above orbital plane
View from above orbital plane
View from above satellite
View from above satellite

Ground track
Ground track

The orbit data is extracted from the following two-line orbital elements,

1 28375U 04025K   14305.09523398  .00000326  00000-0  10973-3 0  9824
2 28375 098.2662 247.4419 0081731 298.9330 060.3681 14.41481070543629
Epoch (UTC): 01 November 2014 02:17:08
Eccentricity: 0.0081731
inclination: 98.2662°
perigee height: 695 km
apogee height: 812 km
right ascension of ascending node: 247.4419°
argument of perigee: 298.9330°
revolutions per day: 14.41481070
mean anomaly at epoch: 60.3681°
orbit number at epoch: 54362

The dashed part of the orbit path shows where the satellite is in the earth's shadow,  

DLR